[[{"header":{"parameterUnit":"m.s-1","parameterCategory":1,"la1":30.2991,"la2":30.254,"lo1":-89.0895,"lo2":-89.0444,"dy":0.0017,"dx":0.0017,"nx":28,"ny":28,"refTime":"2023-04-05T15:00:00:Z","depth":0,"parameterNumber":2,"parameterNumberName":"U-component_of_WINDS"},"data":[0,0,0,0,0,0,0,0,0,0,0,0,0,0,0,0,0,0,0,0,0,0,0,0,0,0,0,0,0,0,0,0,0,0,0,0,0,0,0,0,0,0,0,0,0,0,0,0,0,0,0,0,0,0,0,0,0,0,-3.9444,-3.9444,0,-3.946,-3.9461,-3.9461,-3.9423,-3.9422,-3.942,-3.9419,-3.9435,-3.9437,-3.9438,0,0,0,0,0,0,0,0,0,0,0,0,0,-3.9383,-3.9384,-3.9444,-3.9444,-3.9444,-3.946,-3.9461,-3.9461,-3.9423,-3.9421,-3.942,-3.9419,-3.9435,-3.9437,-3.9439,0,0,0,0,0,0,0,0,0,0,0,0,0,-3.9405,-3.9384,-3.9444,-3.9427,-3.9426,-3.946,-3.9461,-3.9461,-3.9423,-3.9421,-3.942,-3.9418,-3.9434,-3.9437,-3.9439,-3.949,0,0,-3.9446,-3.9447,0,0,0,0,0,0,0,0,-3.9404,-3.9407,-3.943,-3.9429,-3.9427,-3.9438,-3.9445,-3.947,-3.9424,-3.9424,-3.9419,-3.9417,-3.9438,-3.944,-3.9447,-3.949,-3.9491,-3.9446,-3.9448,-3.9449,-3.9449,0,0,0,0,0,0,0,-3.9402,-3.9407,-3.945,-3.943,-3.9429,-3.942,-3.9421,-3.945,-3.9441,-3.9424,-3.9421,-3.9424,-3.9437,-3.9444,-3.9447,-3.9491,-3.9446,-3.9448,-3.945,-3.9451,-3.958,-3.9582,0,0,0,0,0,0,-3.9403,-3.9405,-3.945,-3.9451,-3.9411,-3.9423,-3.9424,-3.9436,-3.944,-3.9439,-3.9425,-3.9422,-3.9441,-3.9444,-3.9447,-3.9507,-3.9449,-3.9451,-3.9452,-3.9578,-3.9581,-3.9583,0,0,0,0,0,0,-3.9402,-3.9407,-3.9449,-3.9428,-3.9432,-3.9426,-3.944,-3.9437,-3.9445,-3.9442,-3.944,-3.9435,-3.944,-3.9444,-3.948,-3.9507,-3.9452,-3.9454,-3.9576,-3.9579,-3.9582,-3.9627,0,0,0,0,0,0,-3.94,-3.9407,-3.9425,-3.9428,-3.9434,-3.9481,-3.9441,-3.9439,-3.9449,-3.9445,-3.945,-3.9449,-3.9439,-3.9477,-3.9482,-3.9509,-3.9456,-3.9573,-3.9577,-3.9581,-3.9623,-3.9631,-3.9639,0,0,0,0,0,-3.9398,-3.9436,-3.9426,-3.9432,-3.9456,-3.9482,-3.9485,-3.9473,-3.9452,-3.947,-3.9469,-3.9449,-3.9504,-3.9481,-3.9487,-3.9515,-3.9571,-3.9576,-3.9581,-3.962,-3.963,-3.9638,0,0,0,0,0,0,-3.9435,-3.9436,-3.9425,-3.9465,-3.9474,-3.9476,-3.9498,-3.9484,-3.9499,-3.9494,-3.9479,-3.948,-3.952,-3.9521,-3.9495,-3.9566,-3.9534,-3.954,-3.9562,-3.9572,-3.9579,-3.9576,-3.9458,0,0,0,0,0,-3.9448,-3.9469,-3.947,-3.9505,-3.9511,-3.9505,-3.9515,-3.9506,-3.9514,-3.9517,-3.9518,-3.9527,-3.9547,-3.956,-3.9578,-3.9625,-3.9626,-3.9648,-3.9656,-3.9662,-3.9666,-3.9693,-3.9702,-3.9598,-3.9598,-3.9598,0,0,-3.9474,-3.9478,-3.9492,-3.9513,-3.9519,-3.9541,-3.9507,-3.9532,-3.9549,-3.9521,-3.9555,-3.9557,-3.9566,-3.9609,-3.9627,-3.9611,-3.9696,-3.9668,-3.9673,-3.9674,-3.9698,-3.9708,-3.9717,-3.9601,-3.9601,-3.96,0,0,-3.9534,-3.9539,-3.957,-3.9578,-3.9588,-3.9584,-3.9592,-3.9597,-3.9597,-3.9632,-3.9612,-3.9633,-3.9667,-3.9675,-3.9683,-3.9753,-3.9735,-3.9759,-3.9798,-3.9824,-3.9832,-3.9839,-3.9863,-3.9872,-3.9764,-3.9765,-3.9765,0,-3.9565,-3.9598,-3.9587,-3.9615,-3.9625,-3.9604,-3.9636,-3.9644,-3.9659,-3.9667,-3.965,-3.9694,-3.9699,-3.9743,-3.976,-3.9769,-3.9777,-3.9756,-3.9832,-3.9839,-3.9845,-3.9868,-3.9877,-3.9767,-3.9767,-3.9767,-3.9766,0,-3.9636,-3.966,-3.9684,-3.97,-3.9714,-3.9744,-3.9739,-3.9755,-3.9746,-3.9745,-3.9782,-3.9788,-3.9807,-3.9818,-3.9809,-3.9862,-3.9852,-3.9834,-3.9801,-3.9858,-3.9879,-3.9888,-3.9771,-3.977,-3.9769,-3.9769,0,0,-3.9712,-3.9727,-3.9736,-3.9744,-3.9757,-3.9775,-3.9806,-3.9826,-3.9839,-3.9853,-3.9877,-3.991,-3.9894,-3.9904,-3.9896,-3.992,-3.9974,-3.9899,-3.9899,-3.9911,-4.0033,-4.0045,-4.0055,-3.9965,-3.9966,-3.9968,-4.0032,0,-3.977,-3.9821,-3.9815,-3.9864,-3.9887,-3.987,-3.9897,-3.9908,-3.991,-3.993,-3.9932,-3.9954,-3.9932,-3.9938,-3.9961,-3.9963,-3.9998,-3.9958,-3.9987,-3.9988,-3.9981,-4.0066,-4.0077,-4.0137,-4.004,-4.0042,-4.0043,0,-3.9842,-3.986,-3.9911,-3.9923,-3.9932,-3.9956,-3.9976,-3.9996,-4.0009,-4.0009,-4.0023,-4.0013,-4.0045,-4.0016,-4.006,-4.0033,-4.0045,-4.0049,-4.0051,-4.005,-4.0016,-4.0065,-4.0156,-4.0165,-4.0056,-4.0055,-4.0054,0,-3.9891,-3.9928,-3.9964,-3.9972,-3.9987,-4.0005,-4.0012,-4.0024,-4.0038,-4.0056,-4.0065,-4.0087,-4.0098,-4.0116,-4.0113,-4.0092,-4.0158,-4.0128,-4.0158,-4.0158,-4.0169,-4.0167,-4.0261,-4.0182,-4.0182,-4.0182,-4.0182,0,-3.9954,-3.9986,-3.9987,-4.0008,-4.0045,-4.004,-4.0076,-4.0081,-4.0094,-4.0117,-4.0105,-4.0127,-4.0123,-4.0146,-4.0145,-4.0182,-4.0187,-4.0188,-4.0186,-4.0187,-4.0187,-4.0192,-4.0187,-4.0184,-4.0184,-4.0183,-4.0183,0,-4.0012,-4.0014,-4.0052,-4.0066,-4.007,-4.0096,-4.0107,-4.0129,-4.0132,-4.0162,-4.0169,-4.0173,-4.02,-4.02,-4.023,-4.0229,-4.0274,-4.0269,-4.0269,-4.0267,-4.0296,-4.0293,-4.0393,-4.0406,-4.0322,-4.0323,-4.0323,0,-4.005,-4.0075,-4.0092,-4.0107,-4.0116,-4.0141,-4.0155,-4.0154,-4.017,-4.019,-4.0209,-4.0236,-4.0256,-4.03,-4.0306,-4.033,-4.0324,-4.0358,-4.0327,-4.0328,-4.0322,-4.032,-4.0322,-4.0362,-4.0363,-4.0364,-4.0365,0,-4.0117,-4.0119,-4.014,-4.0164,-4.0182,-4.0201,-4.0217,-4.0231,-4.0232,-4.0251,-4.0279,-4.0295,-4.0328,-4.0354,-4.0378,-4.0386,-4.0376,-4.0376,-4.0383,-4.0382,-4.038,-4.038,-4.0282,-4.0372,-4.0371,-4.0371,-4.037,-4.037,-4.0165,-4.0187,-4.0203,-4.0229,-4.0242,-4.026,-4.0281,-4.0288,-4.0312,-4.0338,-4.0337,-4.0368,-4.0385,-4.0417,-4.0428,-4.0453,-4.0441,-4.0452,-4.0455,-4.0457,-4.0459,-4.038,-4.0457,-4.0457,-4.0457,-4.0457,-4.0457,0,-4.023,-4.0241,-4.0265,-4.029,-4.0312,-4.0303,-4.0323,-4.0341,-4.0368,-4.0386,-4.0407,-4.0441,-4.0467,-4.0478,-4.0504,-4.0522,-4.0518,-4.0529,-4.0526,-4.0528,-4.0469,-4.0459,-4.0532,-4.0532,-4.0532,-4.0532,-4.0532,-4.0532,-4.0266,-4.0302,-4.0306,-4.0351,-4.0362,-4.0392,-4.0405,-4.0421,-4.0435,-4.0473,-4.0496,-4.0503,-4.0519,-4.0547,-4.0572,-4.0574,-4.0583,-4.0596,-4.0596,-4.054,-4.0532,-4.0525,-4.0515,-4.0599,-4.0599,-4.0653,-4.0653,-4.0654]},{"header":{"parameterUnit":"m.s-1","parameterCategory":1,"la1":30.2991,"la2":30.254,"lo1":-89.0895,"lo2":-89.0444,"dy":0.0017,"dx":0.0017,"nx":28,"ny":28,"refTime":"2023-04-05T15:00:00:Z","depth":0,"parameterNumber":3,"parameterNumberName":"V-component_of_WINDS"},"data":[0,0,0,0,0,0,0,0,0,0,0,0,0,0,0,0,0,0,0,0,0,0,0,0,0,0,0,0,0,0,0,0,0,0,0,0,0,0,0,0,0,0,0,0,0,0,0,0,0,0,0,0,0,0,0,0,0,0,2.0513,2.0514,0,2.0559,2.0559,2.056,2.0655,2.0657,2.0659,2.0661,2.0702,2.0701,2.0701,0,0,0,0,0,0,0,0,0,0,0,0,0,2.0507,2.0507,2.0513,2.0514,2.0514,2.0558,2.0559,2.056,2.0654,2.0657,2.0659,2.0661,2.0702,2.0701,2.0701,0,0,0,0,0,0,0,0,0,0,0,0,0,2.0526,2.0507,2.0513,2.0567,2.0572,2.0558,2.0559,2.056,2.0654,2.0657,2.066,2.0663,2.0703,2.0702,2.07,2.0636,0,0,2.0697,2.0697,0,0,0,0,0,0,0,0,2.0525,2.0527,2.0559,2.0563,2.0569,2.0604,2.0572,2.0585,2.0653,2.0623,2.0661,2.0664,2.0667,2.0669,2.0671,2.0638,2.064,2.0697,2.0697,2.0696,2.0696,0,0,0,0,0,0,0,2.0524,2.0525,2.0531,2.0559,2.0565,2.0589,2.0594,2.0575,2.0628,2.0626,2.0633,2.0637,2.067,2.0672,2.0672,2.064,2.0697,2.0696,2.0696,2.0695,2.056,2.0557,0,0,0,0,0,0,2.0515,2.0523,2.053,2.0532,2.0554,2.0586,2.0593,2.059,2.0628,2.0637,2.0635,2.0641,2.0672,2.0674,2.0674,2.0604,2.0696,2.0695,2.0695,2.0563,2.0559,2.0556,0,0,0,0,0,0,2.0515,2.0515,2.0528,2.053,2.0533,2.0583,2.0579,2.0589,2.0591,2.0635,2.0645,2.0626,2.0674,2.0676,2.0646,2.0606,2.0695,2.0694,2.0567,2.0562,2.0558,2.046,0,0,0,0,0,0,2.0514,2.0514,2.049,2.0529,2.0533,2.0499,2.0577,2.0588,2.0589,2.0599,2.063,2.0638,2.0677,2.0647,2.0645,2.0606,2.0693,2.057,2.0564,2.0559,2.0467,2.0453,2.044,0,0,0,0,0,2.0513,2.0459,2.0488,2.0489,2.0504,2.0496,2.0499,2.0546,2.0586,2.0562,2.0591,2.0637,2.0611,2.0643,2.0642,2.0602,2.0573,2.0566,2.056,2.0473,2.0455,2.0441,0,0,0,0,0,0,2.0412,2.0465,2.0498,2.0455,2.0471,2.0513,2.0484,2.0525,2.0529,2.0537,2.0594,2.06,2.0563,2.058,2.0615,2.0543,2.0599,2.0592,2.0534,2.0518,2.0505,2.0502,2.0692,0,0,0,0,0,2.0385,2.0375,2.0422,2.0379,2.0385,2.0433,2.0431,2.0467,2.0485,2.0491,2.0518,2.0533,2.0529,2.0524,2.0522,2.047,2.0479,2.0442,2.0429,2.0418,2.0411,2.0387,2.0372,2.0534,2.0534,2.0535,0,0,2.0328,2.0356,2.0346,2.0359,2.0376,2.0364,2.0438,2.0422,2.0414,2.0488,2.0463,2.0483,2.0503,2.0463,2.0446,2.0475,2.0368,2.0409,2.04,2.0399,2.0379,2.0363,2.0349,2.053,2.0531,2.0531,0,0,2.022,2.0239,2.0207,2.0223,2.0248,2.0281,2.0273,2.0309,2.0326,2.0302,2.0359,2.035,2.034,2.0353,2.0358,2.0258,2.0301,2.0256,2.0186,2.0162,2.015,2.0139,2.0104,2.0091,2.0248,2.0248,2.0248,0,2.0145,2.0131,2.0185,2.0166,2.0171,2.0241,2.0209,2.0221,2.0243,2.0245,2.0278,2.027,2.0288,2.0253,2.0229,2.023,2.0223,2.0252,2.0147,2.0137,2.0127,2.0095,2.0082,2.0243,2.0243,2.0244,2.0244,0,2.004,2.0029,2.0,2.0023,2.0024,1.9999,2.0049,2.0043,2.0079,2.0108,2.0084,2.0109,2.0115,2.0109,2.0142,2.0079,2.0097,2.0137,2.0195,2.0105,2.0076,2.0064,2.0235,2.0237,2.0238,2.024,0,0,1.9867,1.9922,1.991,1.9923,1.9957,1.9949,1.9927,1.9936,1.9931,1.9944,1.9928,1.992,1.9959,1.9965,2.0001,1.998,1.9901,2.0024,2.0025,2.0001,1.9835,1.9804,1.9789,1.993,1.9928,1.9926,1.9833,0,1.9766,1.9734,1.9783,1.9739,1.9731,1.9798,1.978,1.9799,1.9826,1.9822,1.9852,1.9846,1.9898,1.9902,1.9884,1.9914,1.9868,1.9921,1.9915,1.9914,1.9909,1.9774,1.9741,1.9652,1.9822,1.982,1.9819,0,1.9644,1.9655,1.9611,1.9651,1.9649,1.9631,1.9644,1.964,1.9663,1.9685,1.9693,1.9737,1.9718,1.9774,1.975,1.9786,1.9786,1.9801,1.9798,1.98,1.9861,1.9772,1.9625,1.9612,1.9801,1.9802,1.9804,0,1.9524,1.9527,1.9503,1.9511,1.9556,1.9542,1.956,1.9587,1.9589,1.96,1.9602,1.9609,1.9613,1.9618,1.9663,1.9699,1.9634,1.9693,1.9651,1.965,1.9634,1.9635,1.9486,1.9633,1.9633,1.9633,1.9634,0,1.9408,1.9378,1.945,1.9434,1.9404,1.9461,1.9429,1.9454,1.9477,1.9467,1.9525,1.9515,1.9575,1.9571,1.9606,1.9581,1.9582,1.9599,1.9609,1.9595,1.9592,1.9596,1.9603,1.963,1.9631,1.9631,1.9632,0,1.9268,1.9315,1.9293,1.9338,1.9349,1.9325,1.9364,1.9352,1.9384,1.9371,1.9371,1.9421,1.942,1.9466,1.9472,1.9496,1.9457,1.9477,1.945,1.9456,1.9413,1.9417,1.9261,1.9244,1.9401,1.9399,1.9398,0,1.9191,1.9171,1.9215,1.9215,1.923,1.9227,1.9231,1.9287,1.9288,1.9315,1.9299,1.9303,1.9309,1.9304,1.934,1.9347,1.9368,1.9313,1.9369,1.9356,1.9369,1.937,1.9369,1.9301,1.9299,1.9298,1.9296,0,1.905,1.9075,1.9079,1.9091,1.9095,1.9107,1.9123,1.9118,1.9179,1.9178,1.9179,1.9184,1.9193,1.9196,1.921,1.9228,1.9272,1.9279,1.927,1.9255,1.924,1.9249,1.9418,1.9282,1.9283,1.9284,1.9285,1.9286,1.894,1.8926,1.8957,1.896,1.8978,1.8992,1.8984,1.9016,1.9018,1.9032,1.9064,1.906,1.9086,1.9109,1.9123,1.9121,1.9148,1.9134,1.9131,1.9127,1.9119,1.9241,1.9123,1.9123,1.9124,1.9124,1.9125,0,1.8803,1.8827,1.8829,1.8851,1.8854,1.8898,1.8918,1.8917,1.8913,1.8935,1.8941,1.8942,1.8947,1.8984,1.8993,1.8984,1.9005,1.8984,1.8986,1.899,1.9094,1.9101,1.8968,1.8968,1.8968,1.8968,1.8968,1.8968,1.8732,1.8712,1.8741,1.873,1.8754,1.8752,1.876,1.8774,1.8792,1.8792,1.8796,1.8822,1.885,1.8862,1.8868,1.8879,1.888,1.8853,1.8871,1.8967,1.8982,1.8997,1.9004,1.8852,1.8852,1.8768,1.8767,1.8766]}]]